1483660800.93,39670,5.19,72102.5,-27.85,-59.63,-60.69,0,*63
1483660802.2,39671,5.25,72098.8,-27.85,-59.71,-60.61,0,*69
1483660803.47,39672,5.25,72082.3,-27.85,-59.71,-60.69,0,*62
1483660804.71,39673,5.25,72066.5,-27.85,-59.87,-60.69,0,*6A
1483660805.98,39674,5.25,72096.5,-27.85,-59.71,-60.85,0,*66
1483660807.25,39675,5.19,72072.0,-27.87,-59.95,-61.11,0,*63
1483660808.52,39676,5.25,72062.5,-27.85,-60.19,-61.11,0,*6C
1483660809.8,39677,5.25,72066.5,-27.85,-60.11,-60.93,0,*6E
1483660811.04,39678,5.25,72086.0,-27.85,-59.87,-60.93,0,*64
1483660812.31,39679,5.25,72074.5,-27.85,-60.11,-61.19,0,*63
1483660813.58,39680,5.25,72078.5,-27.85,-60.45,-61.19,0,*64
1483660814.84,39681,5.25,72064.0,-27.85,-60.11,-61.11,0,*6C
1483660816.12,39682,5.25,72064.5,-27.85,-60.19,-61.11,0,*67
1483660817.42,39683,5.25,72094.8,-27.87,-60.19,-61.19,0,*6C
1483660818.72,39684,5.25,72076.3,-27.87,-60.19,-61.19,0,*6B
1483660819.99,39685,5.19,72054.0,-27.85,-60.19,-61.19,0,*68
1483660821.27,39686,5.19,72064.3,-27.85,-60.19,-61.19,0,*6B
1483660822.57,39687,5.25,72062.0,-27.87,-60.19,-61.19,0,*68
1483660823.88,39688,5.25,72068.3,-27.87,-60.19,-60.93,0,*64
1483660825.18,39689,5.25,72074.8,-27.87,-60.11,-60.93,0,*6D
1483660826.45,39690,5.25,72082.0,-27.85,-59.63,-60.69,0,*6D
1483660827.72,39691,5.19,72074.8,-27.85,-59.63,-60.69,0,*6C
1483660828.99,39692,5.25,72072.0,-27.87,-59.37,-60.45,0,*62
1483660830.27,39693,5.19,72070.5,-27.87,-59.37,-60.69,0,*6D
1483660831.53,39694,5.25,72078.0,-27.85,-59.47,-60.69,0,*6F
1483660832.79,39695,5.25,72078.3,-27.85,-59.47,-60.69,0,*6E
1483660834.06,39696,5.19,72058.8,-27.87,-59.13,-60.45,0,*60
1483660835.34,39697,5.25,72066.0,-27.91,-59.21,-60.45,0,*67
1483660836.62,39698,5.19,72074.3,-27.91,-59.37,-60.27,0,*6B
1483660837.89,39699,5.25,72076.3,-27.91,-59.37,-60.45,0,*6E
1483660839.16,39700,5.19,72064.0,-27.87,-59.29,-60.45,0,*67
1483660840.46,39701,5.19,72070.3,-27.91,-59.47,-60.69,0,*67
1483660841.73,39702,5.25,72086.0,-27.87,-59.37,-60.69,0,*64
1483660843.01,39703,5.25,72086.3,-27.87,-59.37,-60.61,0,*6D
1483660844.28,39704,5.25,72074.8,-27.87,-59.37,-60.69,0,*62
1483660845.56,39705,5.19,72078.3,-27.87,-59.37,-60.61,0,*6B
1483660846.84,39706,5.19,72078.5,-27.87,-59.37,-60.93,0,*65
1483660848.11,39707,5.25,72076.8,-27.87,-59.37,-61.11,0,*6F
1483660849.41,39708,5.19,72074.3,-27.87,-59.47,-60.93,0,*6C
1483660850.71,39709,5.25,72070.8,-27.87,-59.71,-60.93,0,*68
1483660852.0,39710,5.19,72074.8,-27.87,-59.71,-61.11,0,*6B
1483660853.24,39711,5.25,72078.5,-27.85,-59.95,-61.19,0,*6A
1483660854.52,39712,5.25,72110.3,-27.91,-59.95,-61.03,0,*67
1483660855.79,39713,5.25,72094.3,-27.87,-59.95,-60.93,0,*69
1483660857.05,39714,5.19,72068.5,-27.91,-60.03,-61.35,0,*61
1483660858.33,39715,5.19,72066.0,-27.91,-59.95,-61.03,0,*60
1483660859.6,39716,5.19,72086.0,-27.91,-60.03,-61.03,0,*66
1483660860.88,39717,5.19,72080.3,-27.91,-59.79,-60.93,0,*68
1483660862.16,39718,5.25,72082.3,-27.91,-59.95,-61.03,0,*6D
1483660863.43,39719,5.19,72088.0,-27.91,-60.03,-61.19,0,*62
1483660864.75,39720,5.19,72094.3,-27.91,-60.27,-61.53,0,*60
1483660866.04,39721,5.19,72092.3,-27.91,-60.27,-61.35,0,*61
1483660867.36,39722,5.25,72092.8,-27.91,-60.27,-61.53,0,*62
1483660868.67,39723,5.25,72096.0,-27.91,-60.45,-61.53,0,*67
1483660869.96,39724,5.19,72088.3,-27.91,-60.19,-61.35,0,*69
1483660871.23,39725,5.25,72094.5,-27.91,-59.95,-61.19,0,*68
1483660872.55,39726,5.25,72094.3,-27.91,-60.19,-61.53,0,*6B
1483660873.86,39727,5.25,72094.8,-27.91,-60.27,-61.27,0,*64
1483660875.13,39728,5.19,72076.0,-27.91,-59.95,-61.19,0,*65
1483660876.41,39729,5.19,72074.0,-27.91,-60.03,-61.03,0,*6A
1483660877.72,39730,5.25,72080.0,-27.91,-60.19,-61.19,0,*62
1483660878.96,39731,5.25,72082.8,-27.93,-59.95,-61.19,0,*6F
1483660880.24,39732,5.25,72094.8,-27.91,-59.95,-61.03,0,*65
1483660881.51,39733,5.25,72088.8,-27.91,-59.95,-61.19,0,*6F
1483660882.79,39734,5.19,72084.3,-27.91,-59.79,-61.19,0,*6A
1483660884.05,39735,5.25,72082.5,-27.91,-60.03,-61.35,0,*62
1483660885.34,39736,5.25,72076.5,-27.93,-60.27,-61.53,0,*65
1483660886.62,39737,5.25,72080.0,-27.93,-60.27,-61.53,0,*64
1483660887.9,39738,5.25,72078.5,-27.93,-60.27,-61.27,0,*68
1483660889.17,39739,5.25,72078.3,-27.93,-60.19,-61.19,0,*69
1483660890.45,39740,5.19,72074.8,-27.93,-60.19,-61.19,0,*67
1483660891.73,39741,5.19,72078.0,-27.91,-59.95,-60.93,0,*69
1483660893.01,39742,5.25,72078.3,-27.91,-60.03,-61.19,0,*6C
1483660894.31,39743,5.19,72080.3,-27.91,-60.19,-61.19,0,*66
1483660895.56,39744,5.25,72080.0,-27.93,-59.95,-61.19,0,*6D
1483660896.81,39745,5.25,72088.5,-27.93,-59.95,-61.19,0,*6C
1483660898.05,39746,5.19,72084.0,-27.93,-60.03,-61.19,0,*6A
1483660899.36,39747,5.25,72086.5,-27.91,-60.19,-61.27,0,*6F
1483660900.6,39748,5.25,72096.0,-27.93,-59.95,-61.03,0,*6A
1483660901.88,39749,5.19,72096.5,-27.91,-59.79,-60.93,0,*63
1483660903.13,39750,5.19,72096.8,-27.93,-59.95,-60.93,0,*6B
1483660904.37,39751,5.19,72086.5,-27.93,-60.03,-61.19,0,*6C
1483660905.65,39752,5.19,72090.0,-27.91,-60.03,-61.19,0,*6D
1483660906.92,39753,5.19,72082.8,-27.93,-60.27,-61.27,0,*65
1483660908.2,39754,5.19,72074.5,-27.93,-60.19,-61.27,0,*6F
1483660909.46,39755,5.25,72082.0,-27.93,-60.45,-61.27,0,*67
1483660910.74,39756,5.25,72094.8,-27.93,-60.19,-61.03,0,*6B
1483660912.05,39757,5.25,72076.8,-27.91,-60.19,-61.03,0,*68
1483660913.29,39758,5.19,72078.3,-27.93,-60.03,-60.93,0,*66
1483660914.54,39759,5.25,72074.5,-27.93,-60.03,-61.19,0,*64
1483660915.85,39760,5.19,72084.8,-27.91,-60.19,-61.19,0,*67
1483660917.13,39761,5.19,72082.3,-27.93,-60.27,-61.19,0,*69
1483660918.4,39762,5.25,72078.3,-27.93,-60.27,-61.19,0,*6A
1483660919.67,39763,5.25,72076.3,-27.93,-60.45,-61.27,0,*62
1483660920.95,39764,5.19,72076.5,-27.93,-60.53,-61.53,0,*61
1483660922.25,39765,5.19,72072.5,-27.91,-60.69,-61.61,0,*6A
1483660923.52,39766,5.19,72068.3,-27.93,-60.45,-61.27,0,*67
1483660924.79,39767,5.19,72082.3,-27.93,-60.19,-61.19,0,*62
1483660926.07,39768,5.19,72084.5,-27.93,-60.19,-61.19,0,*6D
1483660927.36,39769,5.25,72084.8,-27.93,-60.27,-61.53,0,*6F
1483660928.61,39770,5.25,72084.0,-27.93,-60.45,-61.35,0,*63
1483660929.88,39771,5.25,72084.0,-27.93,-60.19,-61.27,0,*68
1483660931.13,39772,5.25,72092.5,-27.93,-59.95,-61.19,0,*68
1483660932.37,39773,5.19,72074.8,-27.93,-60.03,-61.27,0,*61
1483660933.63,39774,5.19,72082.0,-27.97,-60.37,-61.43,0,*67
1483660934.92,39775,5.19,72082.0,-27.95,-60.27,-61.35,0,*64
1483660936.21,39776,5.19,72080.0,-27.95,-60.45,-61.19,0,*6D
1483660937.49,39777,5.19,72080.8,-27.95,-60.45,-61.35,0,*62
1483660938.79,39778,5.19,72088.0,-27.95,-60.27,-61.27,0,*6A
1483660940.09,39779,5.25,72086.8,-27.95,-60.69,-61.53,0,*62
1483660941.37,39780,5.19,72086.8,-27.95,-60.45,-61.35,0,*6A
1483660942.64,39781,5.19,72082.5,-27.95,-60.45,-61.35,0,*6B
1483660943.94,39782,5.19,72080.8,-27.95,-60.45,-61.19,0,*66
1483660945.24,39783,5.25,72088.0,-27.95,-60.27,-61.19,0,*63
1483660946.54,39784,5.25,72084.3,-27.95,-60.45,-61.19,0,*60
1483660947.83,39785,5.25,72096.8,-27.95,-60.45,-61.19,0,*61
1483660949.12,39786,5.25,72104.8,-27.97,-60.61,-61.61,0,*69
1483660950.38,39787,5.19,72096.3,-27.97,-60.53,-61.35,0,*68
1483660951.64,39788,5.19,72094.5,-27.97,-60.85,-61.85,0,*67
1483660952.94,39789,5.25,72096.3,-27.95,-60.69,-61.53,0,*6D
1483660954.25,39790,5.19,72088.5,-27.95,-60.53,-61.53,0,*6C
1483660955.55,39791,5.19,72090.5,-27.95,-60.77,-61.61,0,*6A
1483660956.81,39792,5.19,72098.0,-27.97,-60.61,-61.43,0,*6C
1483660958.11,39793,5.19,72088.8,-27.95,-60.45,-61.27,0,*6B
1483660959.4,39794,5.25,72098.8,-27.95,-60.53,-61.19,0,*66
1483660960.67,39795,5.19,72092.0,-27.97,-60.61,-61.35,0,*6A
1483660961.94,39796,5.25,72096.8,-27.97,-60.37,-61.27,0,*69
1483660963.2,39797,5.19,72094.8,-27.97,-60.61,-61.43,0,*69
1483660964.51,39798,5.19,72096.3,-27.95,-60.53,-61.53,0,*64
1483660965.82,39799,5.19,72094.3,-27.95,-60.53,-61.53,0,*65
1483660967.08,39800,5.25,72092.8,-27.97,-60.53,-61.43,0,*69
1483660968.33,39801,5.25,72094.0,-27.97,-60.77,-61.35,0,*6F
1483660969.58,39802,5.19,72094.3,-27.97,-60.77,-61.43,0,*6D
1483660970.83,39803,5.19,72090.5,-27.97,-60.77,-61.43,0,*6C
1483660972.09,39804,5.19,72094.3,-27.97,-60.85,-61.43,0,*66
1483660973.38,39805,5.19,72090.3,-27.99,-60.61,-61.35,0,*62
1483660974.68,39806,5.25,72092.8,-27.99,-60.53,-61.27,0,*63
1483660975.96,39807,5.25,72094.0,-27.99,-60.61,-61.43,0,*61
1483660977.25,39808,5.25,72090.8,-27.97,-60.61,-61.61,0,*60
1483660978.54,39809,5.19,72076.3,-27.99,-60.37,-61.35,0,*6D
1483660979.85,39810,5.19,72082.0,-27.99,-60.61,-61.61,0,*67
1483660981.11,39811,5.19,72086.3,-28.01,-60.85,-61.69,0,*6A
1483660982.38,39812,5.19,72088.0,-27.99,-60.77,-61.69,0,*6A
1483660983.67,39813,5.19,72082.8,-27.99,-60.61,-61.43,0,*64
1483660984.95,39814,5.25,72090.5,-27.99,-60.61,-61.35,0,*62
1483660986.24,39815,5.19,72090.5,-27.99,-60.61,-61.35,0,*63
1483660987.53,39816,5.19,72080.8,-27.99,-60.61,-61.43,0,*61
1483660988.81,39817,5.19,72086.3,-27.99,-60.53,-61.35,0,*60
1483660990.09,39818,5.19,72096.3,-27.99,-60.53,-61.35,0,*6F
1483660991.38,39819,5.25,72100.3,-28.01,-60.61,-61.53,0,*61
1483660992.67,39820,5.19,72092.8,-27.99,-60.37,-61.35,0,*66
1483660993.92,39821,5.19,72090.5,-28.01,-60.45,-61.35,0,*6C
1483660995.18,39822,5.19,72100.8,-28.01,-60.61,-61.43,0,*68
1483660996.48,39823,5.19,72090.0,-27.99,-60.77,-61.61,0,*60
1483660997.75,39824,5.19,72092.5,-27.99,-60.77,-61.43,0,*67
1483660999.03,39825,5.19,72088.5,-27.99,-60.77,-61.43,0,*66
1483661000.34,39826,5.19,72096.0,-27.99,-60.53,-61.61,0,*63
1483661001.6,39827,5.19,72098.0,-28.01,-60.61,-61.43,0,*6D
1483661002.88,39828,5.25,72102.8,-27.99,-60.61,-61.43,0,*6C
1483661004.14,39829,5.19,72094.5,-28.01,-60.61,-61.43,0,*63
1483661005.43,39830,5.25,72088.8,-27.99,-60.61,-61.35,0,*64
1483661006.71,39831,5.25,72090.3,-27.99,-60.85,-61.69,0,*66
1483661008.0,39832,5.19,72096.3,-28.01,-60.85,-61.53,0,*62
1483661009.25,39833,5.19,72094.0,-28.01,-60.85,-61.69,0,*6A
1483661010.56,39834,5.19,72086.3,-27.99,-60.85,-61.61,0,*6B
1483661011.8,39835,5.19,72074.5,-28.01,-61.11,-61.77,0,*6F
1483661013.08,39836,5.19,72080.8,-28.01,-60.69,-61.53,0,*64
1483661014.34,39837,5.19,72090.8,-28.01,-60.61,-61.35,0,*6D
1483661015.6,39838,5.19,72088.0,-28.01,-60.61,-61.43,0,*63
1483661016.9,39839,5.19,72088.5,-27.99,-60.53,-61.27,0,*6F
1483661018.21,39840,5.19,72084.3,-27.99,-60.85,-61.61,0,*68
1483661019.46,39841,5.19,72080.5,-28.01,-60.85,-61.69,0,*6F
1483661020.72,39842,5.19,72090.0,-28.01,-60.61,-61.43,0,*6E
1483661021.97,39843,5.19,72088.0,-28.01,-60.69,-61.43,0,*67
1483661023.25,39844,5.19,72094.8,-27.99,-60.85,-61.69,0,*64
1483661024.5,39845,5.19,72082.3,-28.01,-60.93,-61.69,0,*6C
1483661025.78,39846,5.19,72080.0,-28.03,-60.69,-61.43,0,*60
1483661027.07,39847,5.19,72092.8,-28.03,-60.61,-61.35,0,*68
1483661028.37,39848,5.19,72076.8,-28.03,-60.69,-61.53,0,*6F
1483661029.65,39849,5.19,72060.3,-28.03,-60.69,-61.43,0,*6F
1483661030.94,39850,5.19,72068.3,-28.03,-60.37,-61.35,0,*6D
1483661032.22,39851,5.19,72064.3,-28.03,-60.37,-61.35,0,*6C
1483661033.53,39852,5.19,72066.8,-28.03,-60.19,-61.19,0,*6D
1483661034.81,39853,5.19,72056.0,-28.05,-60.37,-61.35,0,*68
1483661036.09,39854,5.19,72076.0,-28.03,-60.45,-61.35,0,*6C
1483661037.39,39855,5.19,72090.0,-28.03,-60.11,-61.11,0,*6A
1483661038.67,39856,5.19,72076.0,-28.03,-59.87,-60.85,0,*60
1483661039.95,39857,5.19,72076.8,-28.03,-59.95,-61.11,0,*6E
1483661041.25,39858,5.19,72086.8,-28.05,-60.11,-61.19,0,*69
1483661042.55,39859,5.25,72086.5,-28.03,-60.11,-61.19,0,*6E
1483661043.84,39860,5.19,72086.3,-28.03,-60.11,-61.35,0,*6A
1483661045.15,39861,5.19,72092.0,-28.03,-60.19,-61.11,0,*65
1483661046.46,39862,5.19,72094.3,-28.03,-60.19,-61.19,0,*6E
1483661047.74,39863,5.19,72096.0,-28.03,-60.45,-61.43,0,*69
1483661049.02,39864,5.19,72096.3,-28.03,-60.37,-61.43,0,*6B
1483661050.34,39865,5.25,72102.0,-28.03,-60.61,-61.53,0,*68
1483661051.61,39866,5.19,72106.0,-28.05,-60.45,-61.43,0,*6A
1483661052.89,39867,5.25,72106.0,-28.05,-60.61,-61.69,0,*65
1483661054.2,39868,5.19,72104.8,-28.05,-60.61,-61.53,0,*63
1483661055.48,39869,5.19,72106.3,-28.03,-60.61,-61.43,0,*65
1483661056.79,39870,5.25,72098.3,-28.03,-60.45,-61.19,0,*64
1483661058.07,39871,5.25,72098.5,-28.03,-60.45,-61.43,0,*6A
1483661059.39,39872,5.25,72098.8,-28.03,-60.61,-61.53,0,*6E
1483661060.69,39873,5.19,72090.5,-28.05,-60.61,-61.53,0,*69
1483661062.0,39874,5.19,72094.0,-28.03,-60.69,-61.53,0,*60
1483661063.28,39875,5.19,72106.3,-28.05,-60.61,-61.43,0,*6E
1483661064.56,39876,5.19,72098.5,-28.03,-60.37,-61.35,0,*69
1483661065.84,39877,5.19,72100.5,-28.05,-60.61,-61.43,0,*6C
1483661067.12,39878,5.19,72098.8,-28.03,-60.61,-61.43,0,*65
1483661068.39,39879,5.19,72090.3,-28.05,-60.45,-61.35,0,*65
1483661069.66,39880,5.19,72092.3,-28.05,-60.69,-61.43,0,*6C
1483661070.97,39881,5.19,72072.0,-28.03,-60.69,-61.53,0,*6A
1483661072.24,39882,5.19,72078.3,-28.05,-60.61,-61.35,0,*67
1483661073.51,39883,5.19,72090.0,-28.05,-60.45,-61.35,0,*60
1483661074.8,39884,5.19,72092.5,-28.03,-60.61,-61.43,0,*66
1483661076.09,39885,5.19,72084.8,-28.05,-60.69,-61.53,0,*68
1483661077.37,39886,5.19,72082.0,-28.05,-60.61,-61.43,0,*62
1483661078.68,39887,5.19,72074.8,-28.03,-60.93,-61.53,0,*69
1483661079.98,39888,5.19,72074.8,-28.05,-60.85,-61.53,0,*67
1483661081.24,39889,5.19,72078.3,-28.05,-60.93,-61.77,0,*67
1483661082.51,39890,5.19,72072.3,-28.05,-60.85,-61.77,0,*68
1483661083.78,39891,5.19,72068.3,-28.07,-60.69,-61.53,0,*6F
1483661085.06,39892,5.19,72068.0,-28.05,-60.61,-61.43,0,*67
1483661086.33,39893,5.19,72084.0,-28.05,-60.85,-61.43,0,*6C
1483661087.59,39894,5.25,72076.5,-28.05,-60.69,-61.43,0,*69
1483661088.85,39895,5.19,72080.3,-28.05,-60.69,-61.35,0,*69
1483661090.13,39896,5.19,72076.5,-28.07,-60.93,-61.61,0,*6C
1483661091.4,39897,5.25,72086.5,-28.07,-60.93,-61.61,0,*6D
1483661092.65,39898,5.19,72070.3,-28.07,-60.53,-61.43,0,*6E
1483661093.91,39899,5.19,72084.0,-28.07,-60.45,-61.27,0,*6A
1483661095.18,39900,5.25,72088.5,-28.07,-60.53,-61.27,0,*6C
1483661096.43,39901,5.19,72066.5,-28.07,-60.45,-61.43,0,*68
1483661097.74,39902,5.19,72064.5,-28.09,-60.53,-61.53,0,*63
1483661099.01,39903,5.19,72068.5,-28.07,-60.69,-61.61,0,*64
1483661100.28,39904,5.19,72068.3,-28.09,-60.69,-61.43,0,*6D
1483661101.54,39905,5.19,72072.3,-28.07,-60.45,-61.27,0,*6E
1483661102.82,39906,5.19,72084.3,-28.07,-60.53,-61.53,0,*69
1483661104.1,39907,5.25,72082.8,-28.05,-60.61,-61.43,0,*6A
1483661105.38,39908,5.19,72078.8,-28.07,-60.69,-61.53,0,*6E
1483661106.65,39909,5.19,72080.0,-28.09,-60.53,-61.43,0,*69
1483661107.9,39910,5.19,72086.3,-28.07,-60.53,-61.43,0,*6F
1483661109.18,39911,5.19,72086.5,-28.07,-60.69,-61.53,0,*66
1483661110.47,39912,5.19,72080.5,-28.09,-60.77,-61.61,0,*65
1483661111.76,39913,5.25,72080.0,-28.09,-60.69,-61.61,0,*6B
1483661113.05,39914,5.19,72092.5,-28.09,-60.45,-61.27,0,*60
1483661114.35,39915,5.19,72086.5,-28.09,-60.27,-61.27,0,*65
1483661115.6,39916,5.19,72076.8,-28.07,-60.03,-61.19,0,*63
1483661116.89,39917,5.19,72076.5,-28.09,-59.71,-60.45,0,*6B
1483661118.18,39918,5.19,72082.3,-28.09,-59.47,-60.45,0,*61
1483661119.47,39919,5.19,72070.3,-28.09,-59.71,-60.77,0,*64
1483661120.76,39920,5.19,72074.8,-28.09,-59.47,-60.69,0,*64
1483661122.01,39921,5.19,72072.5,-28.07,-60.03,-61.19,0,*67
1483661123.3,39922,5.19,72072.3,-28.09,-60.19,-61.27,0,*6C
1483661124.57,39923,5.19,72078.0,-28.09,-60.45,-61.43,0,*66
1483661125.87,39924,5.19,72076.8,-28.09,-60.19,-61.19,0,*67
1483661127.17,39925,5.19,72086.3,-28.09,-60.27,-61.27,0,*66
1483661128.45,39926,5.25,72072.0,-28.07,-60.19,-61.19,0,*6B
1483661129.72,39927,5.19,72086.8,-28.07,-60.19,-61.19,0,*6A
1483661131.0,39928,5.19,72086.3,-28.07,-60.19,-61.19,0,*65
1483661132.27,39929,5.19,72074.5,-28.07,-60.19,-61.27,0,*69
1483661133.54,39930,5.19,72082.3,-28.09,-59.95,-61.03,0,*67
1483661134.81,39931,5.19,72082.8,-28.09,-60.03,-61.03,0,*63
1483661136.09,39932,5.19,72090.3,-28.07,-60.27,-61.27,0,*6E
1483661137.36,39933,5.19,72084.8,-28.07,-60.19,-61.19,0,*6F
1483661138.66,39934,5.19,72074.3,-28.09,-60.27,-61.27,0,*66
1483661139.93,39935,5.19,72098.0,-28.09,-60.45,-61.43,0,*61
1483661141.2,39936,5.19,72090.5,-28.07,-60.27,-61.27,0,*6A
1483661142.5,39937,5.19,72086.0,-28.09,-60.27,-61.27,0,*65
1483661143.81,39938,5.19,72088.8,-28.09,-60.53,-61.53,0,*6A
1483661145.09,39939,5.19,72086.0,-28.07,-60.27,-61.19,0,*68
1483661146.36,39940,5.19,72094.0,-28.07,-60.45,-61.53,0,*6C
1483661147.64,39941,5.19,72090.3,-28.09,-60.53,-61.43,0,*65
1483661148.92,39942,5.19,72090.8,-28.07,-60.53,-61.53,0,*69
1483661150.2,39943,5.19,72088.3,-28.09,-60.53,-61.43,0,*67
1483661151.51,39944,5.19,72088.5,-28.09,-60.53,-61.53,0,*61
1483661152.81,39945,5.25,72100.8,-28.13,-60.53,-61.61,0,*6A
1483661154.09,39946,5.19,72106.3,-28.09,-60.03,-61.53,0,*66
1483661155.34,39947,5.19,72092.8,-28.07,-59.95,-61.27,0,*6F
1483661156.6,39948,5.19,72090.0,-28.09,-60.03,-61.19,0,*66
1483661157.9,39949,5.19,72092.0,-28.09,-60.19,-61.27,0,*61
1483661159.17,39950,5.19,72088.3,-28.09,-60.03,-61.19,0,*6F
1483661160.45,39951,5.19,72062.5,-28.13,-60.37,-61.35,0,*6C
1483661161.74,39952,5.19,72042.5,-28.13,-60.37,-61.27,0,*6C
1483661163.03,39953,5.19,72064.8,-28.09,-60.45,-61.27,0,*63
1483661164.3,39954,5.19,72062.5,-28.09,-60.03,-60.93,0,*68
1483661165.6,39955,5.19,72062.3,-28.09,-60.27,-61.03,0,*67
1483661166.89,39956,5.19,72076.0,-28.09,-60.45,-61.27,0,*66
1483661168.19,39957,5.19,72072.8,-28.09,-60.19,-61.03,0,*68
1483661169.48,39958,5.19,72062.0,-28.09,-60.53,-61.27,0,*6F
1483661170.77,39959,5.19,72080.0,-28.09,-60.45,-61.19,0,*64
1483661172.07,39960,5.19,72076.8,-28.09,-60.27,-61.19,0,*6A
1483661173.37,39961,5.19,72082.8,-28.09,-60.27,-61.27,0,*66
1483661174.64,39962,5.19,72094.5,-28.09,-59.95,-60.93,0,*68
1483661175.88,39963,5.19,72096.3,-28.07,-60.03,-61.03,0,*6A
1483661177.15,39964,5.19,72092.8,-28.09,-59.95,-61.03,0,*66
1483661178.4,39965,5.19,72094.0,-28.07,-60.03,-61.03,0,*6C
1483661179.68,39966,5.19,72096.5,-28.09,-60.19,-61.43,0,*6E
1483661180.95,39967,5.19,72088.3,-28.09,-59.95,-61.03,0,*65
1483661182.22,39968,5.19,72082.5,-28.07,-60.19,-61.19,0,*61
1483661183.49,39969,5.19,72082.5,-28.07,-60.45,-61.27,0,*64
1483661184.76,39970,5.19,72086.3,-28.09,-60.45,-61.43,0,*60
1483661186.03,39971,5.19,72090.8,-28.07,-60.27,-61.27,0,*69
1483661187.31,39972,5.19,72084.5,-28.07,-60.27,-61.27,0,*6A
1483661188.58,39973,5.19,72088.3,-28.07,-60.19,-61.19,0,*6B
1483661189.88,39974,5.19,72090.3,-28.09,-60.19,-61.27,0,*6F
1483661191.14,39975,5.19,72088.5,-28.07,-60.27,-61.43,0,*6F
1483661192.42,39976,5.19,72086.8,-28.09,-60.27,-61.43,0,*62
1483661193.69,39977,5.19,72094.3,-28.09,-60.53,-61.43,0,*60
1483661194.95,39978,5.19,72102.5,-28.09,-60.77,-61.77,0,*6E
1483661196.26,39979,5.19,72106.8,-28.09,-60.53,-61.53,0,*6F
1483661197.54,39980,5.19,72104.8,-28.09,-60.27,-61.43,0,*6B
1483661198.85,39981,5.19,72102.3,-28.09,-60.53,-61.53,0,*68
1483661200.12,39982,5.19,72102.0,-28.09,-60.53,-61.43,0,*6A
1483661201.37,39983,5.19,72104.0,-28.07,-60.53,-61.43,0,*65
1483661202.67,39984,5.19,72110.5,-28.09,-60.69,-61.61,0,*65
1483661203.97,39985,5.19,72100.5,-28.09,-60.45,-61.53,0,*6B
1483661205.27,39986,5.19,72102.3,-28.09,-60.45,-61.53,0,*68
1483661206.57,39987,5.19,72104.3,-28.09,-60.69,-61.61,0,*66
1483661207.85,39988,5.19,72108.8,-28.13,-60.85,-61.69,0,*68
1483661209.14,39989,5.19,72112.5,-28.09,-60.69,-61.61,0,*68
1483661210.42,39990,5.19,72096.3,-28.09,-60.53,-61.43,0,*69
1483661211.73,39991,5.19,72098.0,-28.13,-60.61,-61.53,0,*63
1483661213.04,39992,5.19,72090.0,-28.13,-60.61,-61.53,0,*60
1483661214.35,39993,5.19,72094.0,-28.13,-60.85,-61.61,0,*6A
1483661215.63,39994,5.19,72090.0,-28.13,-60.85,-61.69,0,*65
1483661216.93,39995,5.19,72096.3,-28.13,-60.77,-61.53,0,*60
1483661218.23,39996,5.19,72094.0,-28.13,-60.77,-61.53,0,*63
1483661219.51,39997,5.19,72094.0,-28.13,-60.77,-61.27,0,*61
1483661220.81,39998,5.19,72098.3,-28.13,-60.53,-61.27,0,*68
1483661222.11,39999,5.19,72090.5,-28.13,-60.11,-61.03,0,*69
1483661223.41,40000,5.19,72092.5,-28.13,-60.11,-61.11,0,*6D
1483661224.69,40001,5.19,72086.5,-28.15,-60.27,-61.27,0,*6A
1483661225.96,40002,5.19,72082.0,-28.15,-60.53,-61.27,0,*6A
1483661227.24,40003,5.19,72076.0,-28.13,-60.53,-61.35,0,*6E
1483661228.51,40004,5.19,72076.5,-28.15,-60.61,-61.27,0,*6D
1483661229.82,40005,5.19,72074.3,-28.13,-60.61,-61.61,0,*68
1483661231.11,40006,5.19,72086.0,-28.15,-60.61,-61.61,0,*6D
1483661232.4,40007,5.19,72086.8,-28.15,-60.61,-61.53,0,*6D
1483661233.71,40008,5.19,72078.5,-28.13,-60.61,-61.53,0,*64
1483661235.0,40009,5.19,72072.8,-28.15,-60.53,-61.61,0,*63
1483661236.25,40010,5.19,72080.8,-28.15,-60.85,-61.85,0,*6A
1483661237.56,40011,5.19,72084.5,-28.13,-60.61,-61.61,0,*6D
1483661238.85,40012,5.19,72088.0,-28.15,-60.61,-61.61,0,*68
1483661240.11,40013,5.19,72086.3,-28.15,-60.61,-61.69,0,*61
1483661241.39,40014,5.19,72080.3,-28.15,-60.53,-61.53,0,*6E
1483661242.68,40015,5.19,72090.0,-28.15,-60.85,-61.61,0,*65
1483661243.93,40016,5.19,72084.8,-28.15,-60.85,-61.69,0,*6E
1483661245.22,40017,5.19,72076.3,-28.15,-60.61,-61.53,0,*6C
1483661246.52,40018,5.19,72096.0,-28.17,-60.53,-61.61,0,*61
1483661247.83,40019,5.19,72092.8,-28.17,-60.37,-61.53,0,*63
1483661249.11,40020,5.19,72098.5,-28.17,-60.53,-61.35,0,*6B
1483661250.41,40021,5.19,72098.0,-28.17,-60.53,-61.61,0,*6B
1483661251.71,40022,5.19,72080.0,-28.17,-60.53,-61.61,0,*68
1483661252.99,40023,5.19,72076.0,-28.17,-60.53,-61.35,0,*68
1483661254.27,40024,5.19,72088.3,-28.17,-60.61,-61.35,0,*6E
1483661255.57,40025,5.19,72090.5,-28.17,-60.53,-61.61,0,*6F
1483661256.88,40026,5.19,72094.8,-28.17,-60.53,-61.61,0,*6C
1483661258.18,40027,5.19,72088.5,-28.17,-60.37,-61.53,0,*6E
1483661259.49,40028,5.19,72094.5,-28.17,-60.53,-61.61,0,*62
1483661260.76,40029,5.19,72080.8,-28.17,-60.53,-61.35,0,*62
1483661262.04,40030,5.19,72088.5,-28.17,-60.61,-61.35,0,*6B
1483661263.32,40031,5.19,72086.0,-28.17,-60.61,-61.35,0,*6A
1483661264.57,40032,5.19,72094.5,-28.19,-60.69,-61.69,0,*66
1483661265.84,40033,5.19,72088.8,-28.19,-60.85,-61.61,0,*6D
1483661267.11,40034,5.19,72084.8,-28.19,-60.69,-61.61,0,*68
1483661268.36,40035,5.19,72088.0,-28.19,-60.69,-61.69,0,*61
1483661269.61,40036,5.19,72088.0,-28.19,-60.69,-61.69,0,*62
1483661270.88,40037,5.19,72094.0,-28.19,-60.85,-61.61,0,*69
1483661272.14,40038,5.19,72094.8,-28.19,-60.85,-61.69,0,*6E
1483661273.44,40039,5.19,72084.0,-28.17,-60.61,-61.61,0,*63
1483661274.74,40040,5.19,72082.3,-28.17,-60.27,-61.11,0,*68
1483661276.02,40041,5.19,72088.0,-28.17,-60.53,-61.35,0,*6C
1483661277.29,40042,5.19,72090.8,-28.19,-60.69,-61.61,0,*69
1483661278.54,40043,5.19,72078.0,-28.19,-60.61,-61.43,0,*60
1483661279.82,40044,5.19,72086.3,-28.19,-60.61,-61.61,0,*67
1483661281.11,40045,5.19,72082.5,-28.19,-60.61,-61.53,0,*67
1483661282.37,40046,5.19,72072.0,-28.19,-60.61,-61.69,0,*6D
1483661283.65,40047,5.19,72084.8,-28.19,-60.61,-61.61,0,*64
1483661284.92,40048,5.19,72080.0,-28.19,-60.69,-61.61,0,*63
1483661286.19,40049,5.19,72086.0,-28.17,-60.45,-61.35,0,*63
1483661287.49,40050,5.19,72080.8,-28.17,-60.53,-61.27,0,*6F
1483661288.73,40051,5.19,72090.0,-28.19,-60.69,-61.43,0,*6B
1483661290.01,40052,5.19,72090.5,-28.17,-60.27,-61.35,0,*6D
1483661291.28,40053,5.19,72082.3,-28.19,-60.37,-61.19,0,*6D
1483661292.55,40054,5.19,72086.3,-28.19,-60.37,-61.11,0,*62
1483661293.83,40055,5.19,72084.3,-28.19,-60.37,-61.19,0,*6B
1483661295.07,40056,5.19,72076.0,-28.19,-60.45,-61.35,0,*63
1483661296.34,40057,5.19,72080.3,-28.19,-60.37,-61.11,0,*61
1483661297.6,40058,5.19,72086.5,-28.19,-60.37,-61.35,0,*68
1483661298.87,40059,5.19,72090.8,-28.19,-60.27,-61.27,0,*6B
1483661300.15,40060,5.19,72094.0,-28.19,-60.61,-61.61,0,*61
1483661301.4,40061,5.19,72084.0,-28.19,-60.45,-61.43,0,*66
1483661302.65,40062,5.19,72084.3,-28.19,-60.45,-61.43,0,*65
1483661303.9,40063,5.19,72086.3,-28.19,-60.45,-61.43,0,*64
1483661305.15,40064,5.19,72090.8,-28.19,-60.61,-61.43,0,*65
1483661306.41,40065,5.19,72084.5,-28.19,-60.61,-61.43,0,*64
1483661307.68,40066,5.19,72094.5,-28.19,-60.69,-61.61,0,*6F
1483661308.96,40067,5.19,72094.5,-28.19,-60.61,-61.61,0,*66
1483661310.23,40068,5.19,72090.8,-28.19,-60.69,-61.61,0,*61
1483661311.52,40069,5.19,72090.5,-28.19,-60.61,-61.61,0,*68